TimeIST,TemperatureF,Dew PointF,Humidity,Sea Level PressureIn,VisibilityMPH,Wind Direction,Wind SpeedMPH,Gust SpeedMPH,PrecipitationIn,Events,Conditions,WindDirDegrees,DateUTC
12:00 AM,71.6,41.0,33,29.86,2.5,Calm,Calm,-,N/A,,Haze,0,2013-03-26 18:30:00
1:00 AM,68.0,42.8,40,29.86,2.5,Calm,Calm,-,N/A,,Haze,0,2013-03-26 19:30:00
2:00 AM,69.8,42.8,38,29.83,2.5,Calm,Calm,-,N/A,,Haze,0,2013-03-26 20:30:00
2:30 AM,71,44,27,29.78,2,Calm,Calm,,,,Haze,,2013-03-26 21:00:00
3:30 AM,69.8,42.8,38,29.83,2.5,Calm,Calm,-,N/A,,Haze,0,2013-03-26 22:00:00
4:00 AM,69.8,44.6,40,29.80,2.5,Calm,Calm,-,N/A,,Haze,0,2013-03-26 22:30:00
5:00 AM,68.0,44.6,43,29.83,2.5,Calm,Calm,-,N/A,,Haze,0,2013-03-26 23:30:00
5:30 AM,69,44,29,29.78,2,Calm,Calm,,,,Haze,,2013-03-27 00:00:00
6:00 AM,66.2,46.4,49,29.83,2.5,Calm,Calm,-,N/A,,Haze,0,2013-03-27 00:30:00
7:00 AM,68.0,44.6,43,29.86,2.5,Calm,Calm,-,N/A,,Haze,0,2013-03-27 01:30:00
7:30 AM,71.6,46.4,41,29.86,2.5,Calm,Calm,-,N/A,,Haze,0,2013-03-27 02:00:00
8:00 AM,73.4,46.4,38,29.89,2.5,Calm,Calm,-,N/A,,Haze,0,2013-03-27 02:30:00
9:00 AM,78.8,44.6,30,29.89,2.5,East,5.8,-,N/A,,Haze,80,2013-03-27 03:30:00
10:00 AM,80.6,44.6,28,29.92,2.5,SE,5.8,-,N/A,,Haze,140,2013-03-27 04:30:00
11:00 AM,84.2,44.6,25,29.89,2.5,SE,5.8,-,N/A,,Haze,130,2013-03-27 05:30:00
12:00 PM,86.0,44.6,23,29.89,2.5,SE,4.6,-,N/A,,Haze,130,2013-03-27 06:30:00
1:00 PM,87.8,35.6,16,29.86,2.5,South,5.8,-,N/A,,Haze,190,2013-03-27 07:30:00
1:30 PM,86.0,39.2,19,29.86,2.5,SSW,4.6,-,N/A,,Haze,210,2013-03-27 08:00:00
2:00 PM,87.8,37.4,17,29.83,2.5,Variable,1.2,-,N/A,,Haze,0,2013-03-27 08:30:00
3:00 PM,89.6,37.4,16,29.83,2.5,Variable,3.5,-,N/A,,Haze,0,2013-03-27 09:30:00
3:30 PM,87.8,39.2,18,29.80,2.5,West,5.8,-,N/A,,Haze,270,2013-03-27 10:00:00
5:00 PM,87.8,39.2,18,29.80,2.5,Variable,3.5,-,N/A,,Haze,0,2013-03-27 11:30:00
6:00 PM,87.8,39.2,18,29.80,2.5,Calm,Calm,-,N/A,,Haze,0,2013-03-27 12:30:00
7:00 PM,84.2,41.0,22,29.80,2.5,Calm,Calm,-,N/A,,Haze,0,2013-03-27 13:30:00
8:30 PM,81,43,17,29.76,1,NE,2.3,,,,Haze,50,2013-03-27 15:00:00
9:00 PM,80.6,46.4,30,29.83,1.9,East,6.9,-,N/A,,Haze,90,2013-03-27 15:30:00
10:00 PM,78.8,46.4,32,29.86,1.9,East,6.9,-,N/A,,Haze,90,2013-03-27 16:30:00
11:00 PM,78.8,46.4,32,29.86,1.9,East,6.9,-,N/A,,Haze,80,2013-03-27 17:30:00
11:30 PM,77,47,24,29.80,1,East,6.9,,,,Haze,90,2013-03-27 18:00:00